K5NCO Weather Reports


time (UTC)temp
C
wind
direction
speed
KPH
gust
KPH
rain 1hr
cm
rain 24hr
cm
rain mn
cm
humidity
%
barometer
mb
20260901173156 33 314 1.6 1.6 0.00 0.00 0.00 52 1018.1
20260901172652 32 91 1.6 1.6 0.00 0.00 0.00 53 1018.2
20260901172149 32 80 6.4 11.3 0.00 0.00 0.00 53 1018.4
20260901171643 33 64 6.4 14.5 0.00 0.00 0.00 55 1018.4
20260901171137 33 42 3.2 4.8 0.00 0.00 0.00 53 1018.3
20260901170637 33 170 3.2 4.8 0.00 0.00 0.00 54 1018.5
20260901170132 33 7 0.0 0.0 0.00 0.00 0.00 55 1018.4
20260901165631 32 28 3.2 4.8 0.00 0.00 0.00 57 1018.7
20260901165126 32 90 3.2 4.8 0.00 0.00 0.00 58 1018.8
20260901164622 33 79 4.8 4.8 0.00 0.00 0.00 55 1018.7
20260901164117 32 58 4.8 4.8 0.00 0.00 0.00 56 1018.8
20260901163613 32 129 4.8 6.4 0.00 0.00 0.00 57 1018.7
20260901163111 32 29 3.2 4.8 0.00 0.00 0.00 56 1018.5
20260901162606 31 65 8.0 11.3 0.00 0.00 0.00 58 1018.8
20260901162100 32 106 4.8 6.4 0.00 0.00 0.00 58 1018.9
20260901161559 31 268 0.0 0.0 0.00 0.00 0.00 59 1018.9
20260901161059 32 86 9.7 11.3 0.00 0.00 0.00 60 1018.7
20260901160555 32 213 1.6 3.2 0.00 0.00 0.00 60 1018.8
20260901160050 31 250 1.6 1.6 0.00 0.00 0.00 62 1018.9
20260901155549 31 356 3.2 4.8 0.00 0.00 0.00 63 1018.9
20260901155044 31 68 3.2 4.8 0.00 0.00 0.00 65 1018.9
20260901154539 31 243 1.6 1.6 0.00 0.00 0.00 64 1019.0
20260901154034 30 184 0.0 0.0 0.00 0.00 0.00 67 1018.9
20260901153528 31 85 1.6 3.2 0.00 0.00 0.00 65 1018.8
20260901153022 31 222 0.0 1.6 0.00 0.00 0.00 65 1018.9
20260901152517 30 113 0.0 1.6 0.00 0.00 0.00 67 1018.8
20260901152016 30 113 0.0 1.6 0.00 0.00 0.00 69 1018.9
20260901151512 30 269 3.2 3.2 0.00 0.00 0.00 68 1018.8
20260901151011 30 285 1.6 1.6 0.00 0.00 0.00 71 1018.7
20260901150509 29 234 3.2 3.2 0.00 0.00 0.00 72 1018.8
20260901150008 29 337 0.0 0.0 0.00 0.00 0.00 73 1018.7
20260901145501 29 312 3.2 4.8 0.00 0.00 0.00 74 1018.7
20260901145001 28 144 3.2 4.8 0.00 0.00 0.00 73 1018.8
20260901144456 28 261 3.2 3.2 0.00 0.00 0.00 76 1019.0
20260901143951 29 258 3.2 3.2 0.00 0.00 0.00 74 1019.0
20260901143447 28 235 3.2 3.2 0.00 0.00 0.00 77 1019.0
20260901142944 28 311 3.2 4.8 0.00 0.00 0.00 78 1019.1
20260901142438 28 291 6.4 6.4 0.00 0.00 0.00 79 1019.0
20260901141933 27 289 4.8 4.8 0.00 0.00 0.00 79 1019.2
20260901141427 27 235 0.0 1.6 0.00 0.00 0.00 80 1019.1
20260901140922 27 257 1.6 3.2 0.00 0.00 0.00 80 1019.2
20260901140420 27 275 3.2 3.2 0.00 0.00 0.00 80 1019.4
20260901135914 27 260 6.4 6.4 0.00 0.00 0.00 81 1019.2
20260901135409 27 260 3.2 3.2 0.00 0.00 0.00 81 1019.2
20260901134905 28 290 3.2 4.8 0.00 0.00 0.00 80 1019.2
20260901134400 28 11 0.0 0.0 0.00 0.00 0.00 78 1019.3
20260901133854 28 11 0.0 0.0 0.00 0.00 0.00 78 1019.2
20260901133354 27 319 0.0 0.0 0.00 0.00 0.00 81 1019.1
20260901132853 28 76 0.0 0.0 0.00 0.00 0.00 79 1019.1
20260901132348 28 76 0.0 0.0 0.00 0.00 0.00 80 1019.0
20260901131847 27 77 0.0 0.0 0.00 0.00 0.00 82 1019.0
20260901131346 27 320 0.0 0.0 0.00 0.00 0.00 84 1019.0
20260901130842 26 149 1.6 1.6 0.00 0.00 0.00 85 1018.8
20260901130337 26 192 0.0 0.0 0.00 0.00 0.00 85 1018.8
20260901125835 26 154 1.6 3.2 0.00 0.00 0.00 86 1018.5
20260901125334 26 207 0.0 0.0 0.00 0.00 0.00 87 1018.7
20260901124829 25 207 0.0 0.0 0.00 0.00 0.00 88 1018.6
20260901124324 25 207 0.0 0.0 0.00 0.00 0.00 88 1018.3
20260901123824 25 207 0.0 0.0 0.00 0.00 0.00 89 1018.5
20260901123319 25 206 0.0 0.0 0.00 0.00 0.00 89 1018.5
20260901122817 25 201 0.0 0.0 0.00 0.00 0.00 90 1018.4
20260901122312 25 221 0.0 0.0 0.00 0.00 0.00 90 1018.3
20260901121811 25 221 0.0 0.0 0.00 0.00 0.00 90 1018.2
20260901121307 25 221 0.0 0.0 0.00 0.00 0.00 90 1017.9
20260901120806 25 226 0.0 0.0 0.00 0.00 0.00 90 1018.1
20260901120301 25 222 0.0 1.6 0.00 0.00 0.00 90 1017.9
20260901115757 25 247 0.0 0.0 0.00 0.00 0.00 90 1018.1
20260901115252 25 229 0.0 1.6 0.00 0.00 0.00 89 1017.9
20260901114749 25 237 1.6 1.6 0.00 0.00 0.00 89 1018.1
20260901114245 25 206 1.6 1.6 0.00 0.00 0.00 89 1018.3
20260901113742 25 196 1.6 1.6 0.00 0.00 0.00 89 1018.1
20260901113237 25 236 0.0 1.6 0.00 0.00 0.00 89 1018.1
20260901112732 25 198 1.6 1.6 0.00 0.00 0.00 88 1018.2
20260901112232 25 189 1.6 1.6 0.00 0.00 0.00 88 1018.2
20260901111727 25 191 3.2 3.2 0.00 0.00 0.00 88 1018.1
20260901111226 25 234 3.2 3.2 0.00 0.00 0.00 88 1018.1
20260901110720 25 206 1.6 1.6 0.00 0.00 0.00 88 1018.3
20260901110215 25 232 1.6 1.6 0.00 0.00 0.00 88 1018.1
20260901105712 25 196 3.2 3.2 0.00 0.00 0.00 87 1017.9
20260901105211 26 201 4.8 4.8 0.00 0.00 0.00 87 1018.2
20260901104708 26 241 4.8 6.4 0.00 0.00 0.00 87 1018.1
20260901104203 26 222 4.8 4.8 0.00 0.00 0.00 87 1017.7
20260901103702 26 238 4.8 4.8 0.00 0.00 0.00 87 1017.7
20260901103157 26 184 6.4 6.4 0.00 0.00 0.00 86 1017.8
20260901102652 26 216 4.8 4.8 0.00 0.00 0.00 86 1017.7
20260901102151 26 195 1.6 3.2 0.00 0.00 0.00 86 1017.7
20260901101648 26 208 3.2 4.8 0.00 0.00 0.00 86 1017.7
20260901101146 26 227 3.2 3.2 0.00 0.00 0.00 86 1017.7
20260901100641 26 211 4.8 4.8 0.00 0.00 0.00 86 1017.8
20260901100136 26 209 4.8 4.8 0.00 0.00 0.00 86 1017.7
20260901095634 26 204 6.4 9.7 0.00 0.00 0.00 85 1017.5
20260901095132 26 225 6.4 6.4 0.00 0.00 0.00 85 1017.7
20260901094626 26 234 1.6 3.2 0.00 0.00 0.00 84 1017.8
20260901094121 26 228 1.6 1.6 0.00 0.00 0.00 84 1017.6
20260901093616 26 230 3.2 3.2 0.00 0.00 0.00 84 1017.7
20260901093115 26 210 4.8 4.8 0.00 0.00 0.00 83 1017.7
20260901092611 26 171 6.4 6.4 0.00 0.00 0.00 83 1017.9
20260901092107 26 184 4.8 6.4 0.00 0.00 0.00 83 1017.8
20260901091603 26 193 3.2 3.2 0.00 0.00 0.00 82 1017.8
20260901091058 26 181 1.6 3.2 0.00 0.00 0.00 82 1017.8
20260901090557 26 181 4.8 4.8 0.00 0.00 0.00 82 1017.8
20260901090053 26 136 4.8 4.8 0.00 0.00 0.00 81 1017.8
20260901085548 26 184 3.2 3.2 0.00 0.00 0.00 81 1017.7
20260901085044 27 174 3.2 4.8 0.00 0.00 0.00 81 1018.1
20260901084540 27 150 4.8 4.8 0.00 0.00 0.00 80 1017.7
20260901084036 27 128 3.2 3.2 0.00 0.00 0.00 80 1017.6
20260901083530 27 173 4.8 4.8 0.00 0.00 0.00 79 1017.7
20260901083028 27 179 4.8 4.8 0.00 0.00 0.00 79 1017.4
20260901082524 27 169 3.2 4.8 0.00 0.00 0.00 79 1017.8
20260901082019 27 174 4.8 4.8 0.00 0.00 0.00 78 1017.6
20260901081514 27 187 1.6 3.2 0.00 0.00 0.00 78 1017.7
20260901081008 27 107 1.6 3.2 0.00 0.00 0.00 78 1017.6
20260901080508 27 183 9.7 9.7 0.00 0.00 0.00 77 1017.8
20260901080002 27 159 3.2 4.8 0.00 0.00 0.00 77 1017.8
20260901075458 27 112 3.2 4.8 0.00 0.00 0.00 77 1017.8
20260901074956 27 131 4.8 4.8 0.00 0.00 0.00 77 1017.8
20260901074451 27 180 6.4 6.4 0.00 0.00 0.00 77 1017.7
20260901073946 27 201 4.8 6.4 0.00 0.00 0.00 76 1017.9
20260901073443 27 137 8.0 9.7 0.00 0.00 0.00 76 1017.9
20260901072943 27 157 4.8 4.8 0.00 0.00 0.00 75 1017.7
20260901072438 27 127 3.2 3.2 0.00 0.00 0.00 74 1017.7
20260901071933 27 97 1.6 3.2 0.00 0.00 0.00 74 1018.1
20260901071432 27 140 1.6 1.6 0.00 0.00 0.00 73 1018.1
20260901070932 28 165 4.8 4.8 0.00 0.00 0.00 73 1017.8
20260901070427 28 179 4.8 4.8 0.00 0.00 0.00 73 1017.9
20260901065926 27 191 8.0 12.9 0.00 0.00 0.00 73 1017.8
20260901065422 28 98 1.6 3.2 0.00 0.00 0.00 73 1017.6
20260901064916 28 166 8.0 11.3 0.00 0.00 0.00 73 1017.9
20260901064413 28 155 8.0 11.3 0.00 0.00 0.00 74 1017.6
20260901063910 28 138 3.2 4.8 0.00 0.00 0.00 74 1017.7
20260901063406 28 162 6.4 11.3 0.00 0.00 0.00 74 1017.6
20260901062856 28 148 4.8 6.4 0.00 0.00 0.00 74 1017.7
20260901062352 28 118 4.8 4.8 0.00 0.00 0.00 74 1017.7
20260901061847 28 159 14.5 16.1 0.00 0.00 0.00 73 1017.5
20260901061342 28 83 6.4 6.4 0.00 0.00 0.00 73 1017.5
20260901060832 28 170 11.3 14.5 0.00 0.00 0.00 72 1017.5
20260901060328 28 148 6.4 6.4 0.00 0.00 0.00 72 1017.5
20260901055827 28 163 3.2 4.8 0.00 0.00 0.00 71 1017.4
20260901055324 28 151 4.8 6.4 0.00 0.00 0.00 71 1017.6
20260901054820 28 169 8.0 12.9 0.00 0.00 0.00 70 1017.5
20260901054317 28 184 9.7 12.9 0.00 0.00 0.00 69 1017.6
20260901053813 28 150 9.7 11.3 0.00 0.00 0.00 69 1017.4
20260901053307 28 142 9.7 14.5 0.00 0.00 0.00 68 1017.4
20260901052757 28 111 6.4 9.7 0.00 0.00 0.00 68 1017.5
20260901052253 28 127 4.8 6.4 0.00 0.00 0.00 68 1017.2
20260901051751 28 164 8.0 11.3 0.00 0.00 0.00 67 1017.3
20260901051246 29 136 9.7 11.3 0.00 0.00 0.00 67 1017.2
20260901050742 29 132 9.7 12.9 0.00 0.00 0.00 67 1017.2
20260901050237 29 186 4.8 6.4 0.00 0.00 0.00 66 1017.1
20260901045732 29 108 6.4 9.7 0.00 0.00 0.00 66 1016.9
20260901045227 29 173 6.4 9.7 0.00 0.00 0.00 66 1017.1
20260901044722 29 199 3.2 4.8 0.00 0.00 0.00 66 1017.0
20260901044219 29 105 9.7 11.3 0.00 0.00 0.00 65 1017.1
20260901043714 30 146 4.8 11.3 0.00 0.00 0.00 65 1017.1
20260901043209 30 159 3.2 4.8 0.00 0.00 0.00 65 1017.1
20260901042709 30 209 11.3 14.5 0.00 0.00 0.00 64 1017.0
20260901042203 30 212 3.2 4.8 0.00 0.00 0.00 64 1017.0
20260901041659 30 116 11.3 12.9 0.00 0.00 0.00 63 1016.8
20260901041158 30 116 14.5 16.1 0.00 0.00 0.00 63 1016.8
20260901040654 30 74 9.7 12.9 0.00 0.00 0.00 62 1016.8
20260901040147 30 113 8.0 12.9 0.00 0.00 0.00 61 1017.0
20260901035646 30 139 12.9 12.9 0.00 0.00 0.00 61 1016.8
20260901035144 30 139 6.4 9.7 0.00 0.00 0.00 60 1016.9
20260901034638 30 119 11.3 14.5 0.00 0.00 0.00 60 1016.8
20260901034133 30 112 8.0 14.5 0.00 0.00 0.00 59 1016.9
20260901033632 30 146 16.1 17.7 0.00 0.00 0.00 59 1017.2
20260901033132 30 139 9.7 12.9 0.00 0.00 0.00 58 1016.8
20260901032630 30 133 11.3 14.5 0.00 0.00 0.00 58 1016.9
20260901032126 31 67 11.3 16.1 0.00 0.00 0.00 57 1016.7
20260901031621 31 114 12.9 17.7 0.00 0.00 0.00 56 1016.8
20260901031117 31 115 4.8 6.4 0.00 0.00 0.00 56 1016.7
20260901030617 31 149 14.5 22.5 0.00 0.00 0.00 54 1016.5
20260901030112 31 116 9.7 12.9 0.00 0.00 0.00 53 1016.6
20260901025606 31 62 8.0 12.9 0.00 0.00 0.00 51 1016.4
20260901025101 31 100 4.8 6.4 0.00 0.00 0.00 50 1016.4
20260901024555 32 137 8.0 11.3 0.00 0.00 0.00 48 1016.3
20260901024054 32 110 8.0 9.7 0.00 0.00 0.00 47 1016.1
20260901023553 32 153 6.4 6.4 0.00 0.00 0.00 46 1016.1
20260901023048 32 84 4.8 4.8 0.00 0.00 0.00 45 1015.9
20260901022543 32 121 6.4 9.7 0.00 0.00 0.00 45 1015.9
20260901022039 32 78 3.2 4.8 0.00 0.00 0.00 45 1015.9
20260901021534 32 68 8.0 9.7 0.00 0.00 0.00 44 1015.8
20260901021030 32 81 3.2 4.8 0.00 0.00 0.00 44 1015.8
20260901020525 32 80 6.4 6.4 0.00 0.00 0.00 44 1015.6
20260901020020 32 113 1.6 3.2 0.00 0.00 0.00 44 1015.7
20260901015516 32 123 6.4 9.7 0.00 0.00 0.00 43 1015.5
20260901015015 32 106 3.2 3.2 0.00 0.00 0.00 44 1015.6
20260901014511 32 100 4.8 4.8 0.00 0.00 0.00 43 1015.3
20260901014007 32 84 1.6 3.2 0.00 0.00 0.00 44 1015.3
20260901013502 33 94 4.8 6.4 0.00 0.00 0.00 43 1015.4
20260901012958 33 85 3.2 3.2 0.00 0.00 0.00 43 1015.5
20260901012457 33 49 0.0 0.0 0.00 0.00 0.00 43 1015.4
20260901011953 33 70 6.4 9.7 0.00 0.00 0.00 42 1015.4
20260901011449 33 69 4.8 6.4 0.00 0.00 0.00 43 1015.3
20260901010946 33 67 3.2 4.8 0.00 0.00 0.00 43 1015.0
20260901010442 33 72 3.2 4.8 0.00 0.00 0.00 42 1015.2
20260901005941 33 74 1.6 1.6 0.00 0.00 0.00 42 1015.2
20260901005436 33 94 3.2 3.2 0.00 0.00 0.00 41 1015.1
20260901004931 34 109 4.8 6.4 0.00 0.00 0.00 40 1015.2
20260901004430 34 72 3.2 4.8 0.00 0.00 0.00 40 1015.1
20260901003925 34 72 6.4 6.4 0.00 0.00 0.00 39 1015.1
20260901003420 35 78 6.4 6.4 0.00 0.00 0.00 39 1015.2
20260901002918 35 115 4.8 4.8 0.00 0.00 0.00 39 1015.0
20260901002413 35 82 6.4 9.7 0.00 0.00 0.00 38 1015.1
20260901001908 35 131 6.4 11.3 0.00 0.00 0.00 39 1015.1
20260901001403 35 101 4.8 4.8 0.00 0.00 0.00 39 1015.0
20260901000858 35 105 6.4 6.4 0.00 0.00 0.00 39 1015.1
20260901000353 35 108 6.4 9.7 0.00 0.00 0.00 39 1015.1
20260831235851 35 52 14.5 16.1 0.00 0.00 0.00 38 1015.0
20260831235348 35 92 6.4 9.7 0.00 0.00 0.00 38 1014.9
20260831234842 35 89 11.3 12.9 0.00 0.00 0.00 38 1014.9
20260831234337 35 80 6.4 14.5 0.00 0.00 0.00 38 1014.9
20260831233832 35 77 8.0 9.7 0.00 0.00 0.00 38 1014.8
20260831233327 35 59 6.4 9.7 0.00 0.00 0.00 38 1014.9
20260831232823 35 76 12.9 17.7 0.00 0.00 0.00 38 1014.9
20260831232319 35 66 6.4 9.7 0.00 0.00 0.00 39 1015.0
20260831231815 35 89 9.7 12.9 0.00 0.00 0.00 38 1014.9
20260831231311 35 56 14.5 16.1 0.00 0.00 0.00 38 1014.9
20260831230806 35 49 6.4 9.7 0.00 0.00 0.00 39 1015.1
20260831230301 35 76 6.4 6.4 0.00 0.00 0.00 38 1015.0
20260831225800 35 94 11.3 12.9 0.00 0.00 0.00 38 1015.0
20260831225255 36 102 12.9 17.7 0.00 0.00 0.00 39 1015.0
20260831224751 36 32 4.8 6.4 0.00 0.00 0.00 39 1014.9
20260831224246 36 156 6.4 6.4 0.00 0.00 0.00 38 1015.0
20260831223741 36 123 4.8 9.7 0.00 0.00 0.00 38 1015.2
20260831223237 36 42 6.4 6.4 0.00 0.00 0.00 37 1015.2
20260831222733 36 108 9.7 12.9 0.00 0.00 0.00 36 1015.2
20260831222228 36 129 8.0 11.3 0.00 0.00 0.00 36 1015.3
20260831221724 36 147 12.9 20.9 0.00 0.00 0.00 36 1015.1
20260831221219 36 118 3.2 4.8 0.00 0.00 0.00 38 1015.2
20260831220714 36 236 4.8 4.8 0.00 0.00 0.00 38 1015.2
20260831220209 35 185 1.6 3.2 0.00 0.00 0.00 38 1015.2
20260831215704 35 175 6.4 6.4 0.00 0.00 0.00 38 1015.4
20260831215200 36 130 4.8 6.4 0.00 0.00 0.00 38 1015.5
20260831214657 35 118 3.2 4.8 0.00 0.00 0.00 40 1015.6
20260831214154 35 120 6.4 11.3 0.00 0.00 0.00 40 1015.6
20260831213649 35 191 3.2 4.8 0.00 0.00 0.00 40 1015.6
20260831213145 35 116 12.9 16.1 0.00 0.00 0.00 40 1015.7
20260831212640 35 56 4.8 9.7 0.00 0.00 0.00 42 1015.7
20260831212137 35 156 6.4 6.4 0.00 0.00 0.00 40 1015.7
20260831211635 35 66 11.3 16.1 0.00 0.00 0.00 39 1015.8
20260831211130 35 191 9.7 11.3 0.00 0.00 0.00 41 1016.0
20260831210625 35 150 6.4 9.7 0.00 0.00 0.00 42 1016.2
20260831210121 35 147 4.8 6.4 0.00 0.00 0.00 42 1016.1
20260831205620 35 101 12.9 14.5 0.00 0.00 0.00 43 1016.1
20260831205116 35 140 4.8 4.8 0.00 0.00 0.00 43 1016.1
20260831204616 35 214 6.4 6.4 0.00 0.00 0.00 41 1016.3
20260831204114 35 182 16.1 16.1 0.00 0.00 0.00 42 1016.5
20260831203609 35 126 9.7 12.9 0.00 0.00 0.00 42 1016.7
20260831203108 34 173 6.4 6.4 0.00 0.00 0.00 45 1016.8
20260831202608 34 90 6.4 6.4 0.00 0.00 0.00 47 1016.6
20260831202107 35 102 3.2 4.8 0.00 0.00 0.00 46 1016.8
20260831201606 35 216 3.2 4.8 0.00 0.00 0.00 43 1016.9
20260831201101 34 150 6.4 9.7 0.00 0.00 0.00 45 1016.8
20260831200557 33 98 4.8 4.8 0.00 0.00 0.00 48 1017.0
20260831200052 33 145 11.3 12.9 0.00 0.00 0.00 47 1017.0
20260831195548 33 36 6.4 9.7 0.00 0.00 0.00 48 1017.2
20260831195043 33 157 3.2 4.8 0.00 0.00 0.00 47 1017.2
20260831194538 35 196 3.2 4.8 0.00 0.00 0.00 46 1017.2
20260831194033 35 97 6.4 9.7 0.00 0.00 0.00 46 1017.2
20260831193528 35 190 12.9 16.1 0.00 0.00 0.00 47 1017.4
20260831193023 34 101 9.7 11.3 0.00 0.00 0.00 49 1017.4
20260831192517 34 94 6.4 11.3 0.00 0.00 0.00 48 1017.4
20260831192012 33 152 3.2 6.4 0.00 0.00 0.00 48 1017.5
20260831191503 35 92 3.2 4.8 0.00 0.00 0.00 46 1017.7
20260831190959 34 164 16.1 17.7 0.00 0.00 0.00 48 1017.6
20260831190454 33 151 8.0 11.3 0.00 0.00 0.00 48 1017.9
20260831185952 33 207 4.8 6.4 0.00 0.00 0.00 50 1017.9
20260831185449 33 201 8.0 9.7 0.00 0.00 0.00 49 1017.9
20260831184949 33 135 8.0 9.7 0.00 0.00 0.00 50 1017.8
20260831184443 33 142 6.4 9.7 0.00 0.00 0.00 50 1017.9
20260831183939 33 199 9.7 12.9 0.00 0.00 0.00 51 1017.9
20260831183437 33 121 14.5 20.9 0.00 0.00 0.00 50 1018.2
20260831182932 33 188 8.0 9.7 0.00 0.00 0.00 50 1018.3
20260831182427 33 151 11.3 12.9 0.00 0.00 0.00 51 1018.3
20260831181922 33 153 9.7 14.5 0.00 0.00 0.00 51 1018.3
20260831181417 32 119 4.8 6.4 0.00 0.00 0.00 54 1018.4
20260831180912 33 67 14.5 22.5 0.00 0.00 0.00 53 1018.3
20260831180406 33 134 1.6 3.2 0.00 0.00 0.00 55 1018.5
20260831175905 32 106 11.3 12.9 0.00 0.00 0.00 53 1018.4
20260831175402 33 186 6.4 9.7 0.00 0.00 0.00 52 1018.6
20260831174857 32 111 0.0 1.6 0.00 0.00 0.00 54 1018.6
20260831174347 32 55 6.4 9.7 0.00 0.00 0.00 55 1018.8
20260831173846 33 172 9.7 12.9 0.00 0.00 0.00 55 1018.9